Feedback
Home > Rebate Center > Cooking > Range Hoods > Rebate Center: Internal Island Mount Range Hoods > Mounting Type: Island Mount > Blower Type: Internal
Expand Your Results
Remove Mounting Type:
Island Mount
Remove Blower Type:
Internal

Are You a
Builder?

Contact us for
special pricing & volume discounts
Get Quote

Rebate Center: Internal Island Mount Range Hoods

Sort:
Displaying 21 - 40 of 40 Products
20 40 50 products per page
1 2

Prizer Hoods Silverado Series SILVI

Island Chimney Range Hood with Optional Blowers, 3-Speed Fan Control, High-Heat Sensor, Halogen Lights, Handcrafted 16 Gauge Material and Baffle Filters

SILVI36SS 36" Width, Brushed Stainless Steel 01/01/2016 - 12/31/2016 Save $500 Download
SILVI42SS 42" Width, Brushed Stainless Steel 01/01/2016 - 12/31/2016 Save $500 Download
SILVI48SS 48" Width, Brushed Stainless Steel 01/01/2016 - 12/31/2016 Save $500 Download
SILVI54SS 54" Width, Brushed Stainless Steel 01/01/2016 - 12/31/2016 Save $500 Download
SILVI60SS 60" Width, Brushed Stainless Steel 01/01/2016 - 12/31/2016 Save $500 Download

Prizer Hoods Sahara Flat Sides Series SAHAI

Island Range Hood with Optional Blowers, 3-Speed Fan Control, High-Heat Sensor, Halogen Lights, Handcrafted 16 Gauge Material and Baffle Filters

SAHAI36SS 36" Width, Brushed Stainless Steel 01/01/2016 - 12/31/2016 Save $500 Download
SAHAI42SS 42" Width, Brushed Stainless Steel 01/01/2016 - 12/31/2016 Save $500 Download
SAHAI48SS 48" Width, Brushed Stainless Steel 01/01/2016 - 12/31/2016 Save $500 Download
SAHAI54SS 54" Width, Brushed Stainless Steel 01/01/2016 - 12/31/2016 Save $500 Download
SAHAI60SS 60" Width, Brushed Stainless Steel 01/01/2016 - 12/31/2016 Save $500 Download

Prizer Hoods Rectangular Series RECTI

Island Chimney Range Hood with Optional Blowers, 3-Speed Fan Control, High-Heat Sensor, Halogen Lights, Handcrafted 16 Gauge Material and Baffle Filters

RECTI48SS 48" Width, Brushed Stainless Steel 01/01/2016 - 12/31/2016 Save $500 Download
RECTI54SS 54" Width, Brushed Stainless Steel 01/01/2016 - 12/31/2016 Save $500 Download
RECTI60SS 60" Width, Brushed Stainless Steel 01/01/2016 - 12/31/2016 Save $500 Download

BlueStar Manhattan Series BSMNHTTNISS

Island Hood with 3-Speed Blower Options, 750 Color Options, Hidden Controls, Dishwasher Safe Baffle Filters, Halogen Lamps and Top Discharge

BSMANHI24SS 24" Width 01/01/2016 - 12/31/2016 Save $500 Download
BSMANHI30SS 30" Width 01/01/2016 - 12/31/2016 Save $500 Download
BSMANHI36SS 36" Width 01/01/2016 - 12/31/2016 Save $500 Download
BSMANHI42SS 42" Width 01/01/2016 - 12/31/2016 Save $500 Download
BSMANHI48SS 48" Width 01/01/2016 - 12/31/2016 Save $500 Download
BSMANHI54SS 54" Width 01/01/2016 - 12/31/2016 Save $500 Download
BSMANHI60SS 60" Width 01/01/2016 - 12/31/2016 Save $500 Download
BSMANHI66SS 66" Width 01/01/2016 - 12/31/2016 Save $500 Download

Prizer Hoods Manhattan Series MANHI

Island Chimney Range Hood with Optional Blowers, 3-Speed Fan Control, High-Heat Sensor, Halogen Lights, Handcrafted 16 Gauge Material and Baffle Filters

MANHI24SS 24" Width, Brushed Stainless Steel 01/01/2016 - 12/31/2016 Save $500 Download
MANHI30SS 30" Width, Brushed Stainless Steel 01/01/2016 - 12/31/2016 Save $500 Download
MANHI36SS 36" Width, Brushed Stainless Steel 01/01/2016 - 12/31/2016 Save $500 Download
MANHI42SS 42" Width, Brushed Stainless Steel 01/01/2016 - 12/31/2016 Save $500 Download
MANHI48SS 48" Width, Brushed Stainless Steel 01/01/2016 - 12/31/2016 Save $500 Download
MANHI54SS 54" Width, Brushed Stainless Steel 01/01/2016 - 12/31/2016 Save $500 Download
MANHI60SS 60" Width, Brushed Stainless Steel 01/01/2016 - 12/31/2016 Save $500 Download
MANHI66SS 66" Width, Brushed Stainless Steel 01/01/2016 - 12/31/2016 Save $500 Download

Monogram ZV1050SFSS

42 Inch Island Chimney Range Hood with 1,080 CFM Internal Dual Blowers, 4-Speed Fan, 6-Level Halogen Lamps, Electronic Touch Controls and Utensil Rod

ZV1050SFSS Stainless Steel 01/01/2016 - 12/31/2016 Save Up To $3,798 Download

Prizer Hoods Tahoe Series TAHOI

Island Chimney Range Hood with Optional Blowers, 3-Speed Fan Control, High-Heat Sensor, Halogen Lights, Handcrafted 16 Gauge Material and Baffle Filters

TAHOI36SS 36" Width, Brushed Stainless Steel 01/01/2016 - 12/31/2016 Save $500 Download
TAHOI42SS 42" Width, Brushed Stainless Steel 01/01/2016 - 12/31/2016 Save $500 Download
TAHOI48SS 48" Width, Brushed Stainless Steel 01/01/2016 - 12/31/2016 Save $500 Download
TAHOI54SS 54" Width, Brushed Stainless Steel 01/01/2016 - 12/31/2016 Save $500 Download
TAHOI60SS 60" Width, Brushed Stainless Steel 01/01/2016 - 12/31/2016 Save $500 Download

BlueStar Laredo Series BSLAREDOISS

Island Hood with 3-Speed Blower Options, 750 Color Options, Hidden Controls, Dishwasher Safe Baffle Filters and Halogen Lamps

BSLAREI30SS 30" Width 01/01/2016 - 12/31/2016 Save $500 Download
BSLAREI36SS 36" Width 01/01/2016 - 12/31/2016 Save $500 Download
BSLAREI42SS 42" Width 01/01/2016 - 12/31/2016 Save $500 Download
BSLAREI48SS 48" Width 01/01/2016 - 12/31/2016 Save $500 Download
BSLAREI54SS 54" Width 01/01/2016 - 12/31/2016 Save $500 Download
BSLAREI60SS 60" Width 01/01/2016 - 12/31/2016 Save $500 Download
BSLAREI66SS 66" Width 01/01/2016 - 12/31/2016 Save $500 Download

BlueStar Laredo Series BSLAREDOIBC

Brushed Copper Island Hood with 3-Speed Blower Options, Hidden Controls, Baffle Filters and Halogen Lamps

BSLAREI30BC 30" Width 01/01/2016 - 12/31/2016 Save $500 Download
BSLAREI36BC 36" Width 01/01/2016 - 12/31/2016 Save $500 Download
BSLAREI42BC 42" Width 01/01/2016 - 12/31/2016 Save $500 Download
BSLAREI48BC 48" Width 01/01/2016 - 12/31/2016 Save $500 Download
BSLAREI54BC 54" Width 01/01/2016 - 12/31/2016 Save $500 Download
BSLAREI60BC 60" Width 01/01/2016 - 12/31/2016 Save $500 Download
BSLAREI66BC 66" Width 01/01/2016 - 12/31/2016 Save $500 Download

Prizer Hoods Hampton Series HAMPI

Island Chimney Range Hood with Optional Blowers, 3-Speed Fan Control, High-Heat Sensor, Halogen Lights, Handcrafted 16 Gauge Material and Baffle Filters

HAMPI30SS 30" Width, Brushed Stainless Steel 01/01/2016 - 12/31/2016 Save $500 Download
HAMPI36SS 36" Width, Brushed Stainless Steel 01/01/2016 - 12/31/2016 Save $500 Download
HAMPI42SS 42" Width, Brushed Stainless Steel 01/01/2016 - 12/31/2016 Save $500 Download
HAMPI48SS 48" Width, Brushed Stainless Steel 01/01/2016 - 12/31/2016 Save $500 Download
HAMPI54SS 54" Width, Brushed Stainless Steel 01/01/2016 - 12/31/2016 Save $500 Download
HAMPI60SS 60" Width, Brushed Stainless Steel 01/01/2016 - 12/31/2016 Save $500 Download
HAMPI66SS 66" Width, Brushed Stainless Steel 01/01/2016 - 12/31/2016 Save $500 Download

BlueStar Hampton Series BSHAMPTONISS

Island Hood with 3-Speed Blower Options, 750 Color Options, Hidden Controls, Dishwasher Safe Baffle Filters, Halogen Lamps and Top Exhaust

BSHAMPI30SS 30" Width 01/01/2016 - 12/31/2016 Save $500 Download
BSHAMPI36SS 36" Width 01/01/2016 - 12/31/2016 Save $500 Download
BSHAMPI42SS 42" Width 01/01/2016 - 12/31/2016 Save $500 Download
BSHAMPI48SS 48" Width 01/01/2016 - 12/31/2016 Save $500 Download
BSHAMPI54SS 54" Width 01/01/2016 - 12/31/2016 Save $500 Download
BSHAMPI60SS 60" Width 01/01/2016 - 12/31/2016 Save $500 Download
BSHAMPI66SS 66" Width 01/01/2016 - 12/31/2016 Save $500 Download

BlueStar Laredo Series BSLAREDOIBB

Brushed Brass Island Hood with 3-Speed Blower Options, Hidden Controls, Baffle Filters and Halogen Lamps

BSLAREI30BB 30" Width 01/01/2016 - 12/31/2016 Save $500 Download
BSLAREI36BB 36" Width 01/01/2016 - 12/31/2016 Save $500 Download
BSLAREI42BB 42" Width 01/01/2016 - 12/31/2016 Save $500 Download
BSLAREI48BB 48" Width 01/01/2016 - 12/31/2016 Save $500 Download
BSLAREI54BB 54" Width 01/01/2016 - 12/31/2016 Save $500 Download
BSLAREI60BB 60" Width 01/01/2016 - 12/31/2016 Save $500 Download
BSLAREI66BB 66" Width 01/01/2016 - 12/31/2016 Save $500 Download

Wolf PI3418

Island Chimney Range Hood with Infinite-Speed Blower Control, Automatic Heat Sentry, Halogen Lights, Baffle Filters and Recessed Controls

PI363418 36" Width 07/01/2016 - 03/31/2017 Receive a $1,000 Rebate or Free Wolf Gourmet Products Download
PI423418 42" Width 07/01/2016 - 03/31/2017 Receive a $1,000 Rebate or Free Wolf Gourmet Products Download
PI543418 54" Width 07/01/2016 - 03/31/2017 Receive a $1,000 Rebate or Free Wolf Gourmet Products Download
PI663418 66" Width 07/01/2016 - 03/31/2017 Receive a $1,000 Rebate or Free Wolf Gourmet Products Download

Wolf VI42S

42 Inch Island Chimney Range Hood with Optional Blowers, 3-Speed + Boost, Delay-Off, Filter Clean Indicator, Aluminum Mesh Filters and Front-Mounted Controls

VI42S Stainless Steel 07/01/2016 - 03/31/2017 Receive a $1,000 Rebate or Free Wolf Gourmet Products Download

Thermador Masterpiece Series HPIBxxHS

Island Mount Chimney Range Hood with 600 CFM Internal Blower, 3-Speed Fan, 4 Halogen Lights w/ Dimmer, Dishwasher-Safe Frameless Filters and Convertible to Recirculating

HPIB42HS 42 in. Width 01/01/2016 - 12/31/2016 Save Up To $7,646 Instantly Download
HPIB48HS 48 in. Width 01/01/2016 - 12/31/2016 Save Up To $7,646 Instantly Download

GE Profile PV977NSS

36 Inch Island Chimney Hood with 450 CFM Internal Blower, Vertical Exhaust, Variable Speed Fan Control and Dual Halogen Cooktop Lighting

PV977NSS Stainless Steel 07/20/2016 - 12/31/2016 Save Up to $2,000 Download

Wolf VI42B

42 Inch Island Chimney Range Hood with Optional Blowers, 3-Speed + Boost, Delay-Off, Filter Clean Indicator, Mesh Filters and Black Glass Touch Control Panel

VI42B Stainless Steel 07/01/2016 - 03/31/2017 Receive a $1,000 Rebate or Free Wolf Gourmet Products Download

Monogram ZV925SLSS

36 Inch Island Chimney Range Hood with 570 CFM Internal Blower, 4-Speed Fan, Touch Controls, LCD Display, Glass Canopy and Convertible to Recirculating

ZV925SLSS Stainless Steel 01/01/2016 - 12/31/2016 Save Up To $3,798 Download

Thermador Masterpiece Series HMIB40HS

40 Inch Glass Island Mount Chimney Range Hood with 600 CFM Internal Blower, 4-Speed Touch Controls, 4 Halogen Lights w/ Dimmer and Convertible to Recirculating

HMIB40HS Stainless Steel 01/01/2016 - 12/31/2016 Save Up To $7,646 Instantly Download

Wolf VI45G

45 Inch Island Chimney Range Hood with Optional Blowers, 3-Speed + Boost, Delay-Off, Filter Clean Indicator, Mesh Filters, Front-Mounted Controls and Glass Edge

VI45G Stainless Steel 07/01/2016 - 03/31/2017 Receive a $1,000 Rebate or Free Wolf Gourmet Products Download
Sort:
Displaying 21 - 40 of 40 Products
20 40 50 products per page
1 2